Regional Weather Roundup
Issued by NWS

Home | Current Version | Previous Version | Text Only | Print | Product List | Glossary On
Versions: 1 2 3 4 5 6 7 8 9 10 11 12 13 14 15 16 17 18 19 20 21 22 23 24 25 26 27 28 29 30 31 32 33 34 35 36 37 38 39 40 41 42 43 44 45 46 47 48 49 50
000
ASUS43 KIND 281209
RWRIN

WEATHER ROUNDUP FOR INDIANA
NATIONAL WEATHER SERVICE INDIANAPOLIS IN
700 AM EST SUN DEC 28 2014

NOTE: "FAIR" INDICATES FEW OR NO CLOUDS BELOW 12,000 FEET WITH NO
SIGNIFICANT WEATHER AND/OR OBSTRUCTIONS TO VISIBILITY.

* - STATION DOES NOT REPORT WEATHER SUCH AS PRECIPITATION OR FOG.

+ - STATION NOT QUALITY CONTROLLED BY THE NATIONAL WEATHER SERVICE.
    USE DATA WITH CAUTION...ESPECIALLY DEWPOINT AND RELATIVE
    HUMIDITY OBSERVATIONS.

INZ001>003-010>013-019-020-281300-
NORTHWEST INDIANA

CITY           SKY/WX    TMP DP  RH WIND       PRES   REMARKS
GARY /AIRPORT/ CLOUDY    32  21  64 W9        30.15S WCI  24
KNOX *+        CLOUDY    31  23  73 W10       30.14R WCI  22
LA PORTE +     CLOUDY    32  26  79 W5        30.14S WCI  28
6HR MIN TEMP:  32; 6HR MAX TEMP:  35;

MICHIGAN CITY+ CLOUDY    32  19  59 NW5       30.14F WCI  27
MONTICELLO +   CLOUDY    30  27  88 W9        30.15R WCI  21
RENSSELAER +   CLOUDY    30  30 100 NW5       30.16R WCI  25
VALPARAISO     CLOUDY    30  24  78 W6        30.14S WCI  24
6HR MIN TEMP:  30; 6HR MAX TEMP:  33;


$$

LMZ046-743>745-281300-
SOUTHERN LAKE MICHIGAN

STATION/POSITION TIME  TEMP WIND        PRES
                       AIR  DIR/SP/G
                 (UTC) (F)  (DEG/KT/KT) (MB)
MICHIGAN CITY    1200   31  280/ 10/ 13   N/A

$$

INZ004-005-014>016-021>024-281300-
NORTH CENTRAL INDIANA

CITY           SKY/WX    TMP DP  RH WIND       PRES   REMARKS
GOSHEN         CLOUDY    33  25  72 NW10      30.10R WCI  25
6HR MIN TEMP:  33; 6HR MAX TEMP:  35;

LOGANSPORT +   CLOUDY    32  27  80 W7        30.15R WCI  26
PERU/GRISSOM   CLOUDY    31  31 100 W9        30.12S WCI  23
6HR MIN TEMP:  31; 6HR MAX TEMP:  32;

ROCHESTER +    CLOUDY    34  30  86 W7        30.14R WCI  28
SOUTH BEND     CLOUDY    32  25  75 NW9       30.13R WCI  24
6HR MIN TEMP:  32; 6HR MAX TEMP:  35;

WARSAW +       CLOUDY    32  28  86 W9        30.11S WCI  24

$$

INZ006>009-017-018-025>027-281300-
NORTHEAST INDIANA

CITY           SKY/WX    TMP DP  RH WIND       PRES   REMARKS
ANGOLA *+      CLOUDY    34  28  80 NW5       30.07S WCI  30
AUBURN +       CLOUDY    34  28  80 W8        30.10R WCI  27
FORT WAYNE     CLOUDY    33  29  85 W8        30.11S WCI  26
6HR MIN TEMP:  33; 6HR MAX TEMP:  34;

HUNTINGTON +   CLOUDY    32  27  80 W6        30.11S WCI  26
6HR MIN TEMP:  32; 6HR MAX TEMP:  32;


$$

INZ028-029-035-036-043>045-051>053-281300-
WEST CENTRAL INDIANA

CITY           SKY/WX    TMP DP  RH WIND       PRES   REMARKS
CRAWFORDSVL +  CLOUDY    28  23  80 NW7       30.16  WCI  21
GREENCASTLE +  CLOUDY    30  25  80 NW9       30.16R WCI  22
LAFAYETTE      CLOUDY    29  25  85 NW8       30.17R WCI  21
6HR MIN TEMP:  28; 6HR MAX TEMP:  31;

TERRE HAUTE    CLOUDY    31  26  82 NW10      30.18S WCI  22
6HR MIN TEMP:  31; 6HR MAX TEMP:  34;


$$

INZ030>032-037>040-046>048-054>057-064-065-281300-
CENTRAL INDIANA

CITY           SKY/WX    TMP DP  RH WIND       PRES   REMARKS
CP ATTERBURY + CLOUDY    32  28  86 MISG      30.14F
FRANKFORT +    CLOUDY    31  30  96 W10       30.16R WCI  22
GREENWOOD *+   CLOUDY    32  27  80 NW7       30.15  WCI  26
INDIANAPOLIS   CLOUDY    30  26  85 NW8       30.14S WCI  22
6HR MIN TEMP:  30; 6HR MAX TEMP:  33; 6HR PCP: TRACE;

-EAGLE CREEK   CLOUDY    30  26  85 NW9       30.14S WCI  22
6HR MIN TEMP:  30; 6HR MAX TEMP:  33;

KOKOMO *+      CLOUDY    30  25  80 W9        30.13S WCI  22
MARION +       CLOUDY    32  28  87 W8        30.13S WCI  24
MT COMFORT *+  CLOUDY    32  28  86 N7        30.14S WCI  26
SHELBYVILLE    CLOUDY    33  28  81 N9        30.13S WCI  25
6HR MIN TEMP:  33; 6HR MAX TEMP:  37; 6HR PCP: TRACE;

ZIONSVILLE +   CLOUDY    31  26  80 NW8       30.14S WCI  24
6HR MIN TEMP:  31; 6HR MAX TEMP:  33;


$$

INZ033-034-041-042-049-050-058-059-281300-
EAST CENTRAL INDIANA

CITY           SKY/WX    TMP DP  RH WIND       PRES   REMARKS
MUNCIE         CLOUDY    32  28  85 W7        30.11S WCI  26
6HR MIN TEMP:  32; 6HR MAX TEMP:  34; 6HR PCP: TRACE;


$$

INZ060-061-067>069-081>083-085>088-281300-
SOUTHWEST INDIANA

CITY           SKY/WX    TMP DP  RH WIND       PRES   REMARKS
EVANSVILLE     CLOUDY    36  30  79 N9        30.17R
6HR MIN TEMP:  36; 6HR MAX TEMP:  40;

HUNTINGBURG *+ CLOUDY    34  28  80 N10       30.16R WCI  26
6HR MIN TEMP:  34; 6HR MAX TEMP:  39;

WASHINGTON +   CLOUDY    32  27  80 N10       30.18R WCI  24
6HR MIN TEMP:  32; 6HR MAX TEMP:  37;


$$

INZ062-063-066-070>080-084-089>092-281300-
SOUTH CENTRAL AND SOUTHEAST INDIANA

CITY           SKY/WX    TMP DP  RH WIND       PRES   REMARKS
BLOOMINGTON    CLOUDY    31  28  89 NW7       30.14S WCI  24
6HR MIN TEMP:  31; 6HR MAX TEMP:  36;

NORTH VERNON + CLOUDY    34  34 100 NW9       30.13  WCI  26
SEYMOUR +      CLOUDY    36  34  93 NW8       30.14R

$$



USA.gov is the U.S. government's official web portal to all federal, state and local government web resources and services.